Skip Page Navigation
NASA JPL Caltech
NASA Logo - Jet Propulsion Laboratory + View the NASA Portal
+ Center for Near-Earth Object Studies
JPL Home Earth Solar System Stars & Galaxies Technology
JPL Solar System Dynamics
BODIES ORBITS EPHEMERIDES TOOLS PHYSICAL DATA DISCOVERY FAQ SITE MAP
JPL Small-Body Database Browser
Search: [ help ]  
78348 (2002 PB95)
Classification: Main-belt Asteroid          SPK-ID: 2078348
Ephemeris | Orbit Diagram | Orbital Elements | Mission Design | Physical Parameters | Discovery Circumstances ]

[ show orbit diagram ]
Orbital Elements at Epoch 2459000.5 (2020-May-31.0) TDB
Reference: JPL 23 (heliocentric ecliptic J2000)
 Element Value Uncertainty (1-sigma)   Units 
e .06276727426093623 4.0258e-08  
a 3.084573537015595 2.3382e-08 au
q 2.890963263839712 1.2311e-07 au
i 10.56532379375056 4.3551e-06 deg
node 114.9844571746817 2.5694e-05 deg
peri 226.9022371539785 4.8201e-05 deg
M 97.76099135810048 4.0967e-05 deg
tp 2458463.153758364972
(2018-Dec-10.65375837)
0.00022605 TDB
period 1978.750872932728
5.42
2.25e-05
6.16e-08
d
yr
n .1819329582740449 2.0687e-09 deg/d
Q 3.278183810191479 2.485e-08 au
  Orbit Determination Parameters
   # obs. used (total)      690  
   data-arc span      9785 days (26.79 yr)  
   first obs. used      1994-01-11  
   last obs. used      2020-10-26  
   planetary ephem.      DE431  
   SB-pert. ephem.      SB431-N16  
   condition code      0  
   norm. resid. RMS      .56799  
   source      ORB  
   producer      Otto Matic  
   solution date      2020-Nov-12 21:27:12  

Additional Information
 Earth MOID = 1.8924 au 
 Jupiter MOID = 2.02389 au 
 T_jup = 3.198 
[ show covariance matrix ]

Ephemeris | Orbit Diagram | Orbital Elements | Mission Design | Physical Parameters | Discovery Circumstances ]

Physical Parameter Table
Parameter Symbol Value Units Sigma Reference Notes
absolute magnitude H 14.7   n/a MPO502629  
diameter diameter 4.914 km 1.072 urn:nasa:pds:neowise_diameters_albedos::2.0[mainbelt] (http://adsabs.harvard.edu/abs/2011ApJ...741...68M)  
geometric albedo albedo 0.127   0.084 urn:nasa:pds:neowise_diameters_albedos::2.0[mainbelt] (http://adsabs.harvard.edu/abs/2011ApJ...741...68M)  

78348 (2002 PB95)          Discovered 2002-Aug-12 by NEAT at Haleakala
Reference: 20040415/Numbers.arcLast Updated: 2004-04-19
Ephemeris | Orbit Diagram | Orbital Elements | Mission Design | Physical Parameters | Discovery Circumstances ]
ABOUT SSD CREDITS/AWARDS PRIVACY/COPYRIGHT GLOSSARY LINKS
FirstGov 2020-Dec-01 19:30 UT
(server date/time)  
NASA Home Page
Site Manager:   Ryan S. Park
Webmaster  Alan B. Chamberlin